STARLINK-31689, 59567

Orbit data source: Space-Track

STARLINK-31689, 59567 is a payload satellite owned by SpaceX/Seattle (US) in LEO that was launched on Tue, 23 Apr 2024 UTC via an FALCON 9 launch vehicle from the Air Force Eastern Test Range (AFETR). Payload-class satellites include a variety of spacecraft equipped with specific instruments for various scientific and technological missions. These include communications satellites like Starlink; space stations such as the ISS; scientific satellites like the Hubble; Earth observation satellites from companies like Planet Labs, Umbra, and HawkEye 360; GPS; miniature CubeSats for education and research; and military/defense satellites.

Loading next visibility...
Identifier
59567, 2024-076D
Orbit
LEO
Last TLE update
6 hours ago
Origin
Manufacturer
SpaceX/Seattle
Mission
Operational spacecraft
Bus & Motor
STARLINK V2M, Unknown motor
Mass
730 kg wet, ~700 kg dry
Launch date (UTC)
2024-04-23 (1 year ago)
Launch vehicle
FALCON 9
Launch site
Air Force Eastern Test Range (AFETR)
Object type
Payload
Rocket body
Debris
Shape & HBR
Unknown
Radar Cross Section
Large (>1 m²)

Expand to show TLE details & history

TLE from 6 hours ago
0 STARLINK-31689
1 59567U 24076D   25182.16479289  .00003496  00000-0  13651-3 0  9996
2 59567  42.9987 346.1617 0002265 268.2858  91.7734 15.27582410 68072
Epoch: 2025-07-01T03:57Z
TLE epoch observation values (Epoch: 2025-07-01T03:57:18.105Z)
Latitude
-0.00004°
Longitude
7.37205°
Altitude
482.866 km
Speed
7.626 km/s
True Right ascension
23h 04m 38s
True Declination
0° 00' 00"
Sunlit
Object was in full shadow at epoch
Visualization orbit readout
Latitude
2.45713°
Longitude
8.51368°
Altitude
482.625 km
Speed
7.626 km/s
Apparent Right ascension
01h 31m 47s
Apparent Declination
-54° 06' 25"
Sunlit
Object is in daylight
Visualization observer readout
Local Sidereal Time
21:53:16
Azimuth
150.33° SSE
Elevation
-15.041°
Doppler factor
1
Orbital elements
Apogee altitude
486.542 km
Perigee altitude
483.433 km
Semi-major axis
6,863.124 km
Eccentricity
0.00023
Inclination
42.9987°
RAAN
346.1617°
Arg. of periapsis
268.2858°
True anomaly
Unknown
Mean anomaly
91.7734°
Eccentric anomaly
Unknown
Mean motion
3.81734 °/min
Orbital period
94.31 mins
BSTAR
0.00013651
Loading maneuver chart data...
Loading SW <> Apogee altitude chart data...
Loading historical data...
Loading historical data...
Loading historical data...
Loading historical data...
Loading historical data...
Loading historical data...
Loading historical data...

STARLINK-31689 Visibility forecast

Observer location: undefined°, undefined°

Span
Click to sort rows by Start time (UTC) header in descending order
Start Az.
Max El. time (UTC)
Max El. Az.
Max El.
End time (UTC)
End Az.
5 mins2025-07-01 13:32:51.745Z187.367° SSW2025-07-01 13:35:51.745Z134.344° SE16.949°2025-07-01 13:37:51.745Z101.264° ESE
5 mins2025-07-01 15:11:51.745Z241.774° WSW2025-07-01 15:13:51.745Z183.999° SSW44.108°2025-07-01 15:16:51.745Z74.333° E
5 mins2025-07-01 16:50:51.745Z286.654° WNW2025-07-01 16:52:51.745Z342.418° N38.09°2025-07-01 16:55:51.745Z70.41° E
6 mins2025-07-01 18:29:51.745Z292.309° WNW2025-07-01 18:31:51.745Z325.528° NNW41.934°2025-07-01 18:35:51.745Z99.463° ESE
5 mins2025-07-01 20:08:51.745Z264.779° W2025-07-01 20:10:51.745Z217.882° SW28.28°2025-07-01 20:13:51.745Z150.4° SSE
|